BANGABANDHUSAT-1 (43463 NORAD) Tracking and Keplerian Element Data

This shows tracking and keplerian element data for the satellite.

Feedback or suggestion? Click here.




ElementValue
Catalog43463
NameBANGABANDHUSAT-1
Epoch Orbit1240
Epoch Day268.78237399
Epoch Year2021
RAAN237.1786
Inclination0.0117
Eccentricity0.0002449
Argument of Perigee316.8651
Mean Anonmoly211.5402
Mean Motion1.002725
Decay Rate-3.66E-06
L11 43463U 18044A 21268.78237399 -.00000366 00000-0 00000-0 0 9990
L22 43463 0.0117 237.1786 0002449 316.8651 211.5402 1.00272500 12403

Live tracking and technical data element details for BANGABANDHUSAT-1 (NORAD 43463). BANGABANDHUSAT-1 can be tracked NOW for your location showing map with azimuth and elevation plus other details from your city location.

Track the satellite on the map from your city or location and see movement details for azimuth, elevation, latitude, longitude, range, height, and movement on the map or in text.







IsCatalogInMostPopularTable: catalog: 43463, numindb: 532
Update: records affected: 1



GetName: 43463 BANGABANDHUSAT-1

Hit Count: updated at: Mon, 27 Sep 2021 00:59:35 GMT